Home   Weather   Poole   Past weeks

Flag for United Kingdom Past Weather in Poole, England, United Kingdom — Yesterday and Last 2 Weeks

Now
46 °F

Passing clouds.


Feels Like: 44 °F
Forecast: 46 / 60 °F
Wind: 5 mph from East

Location: Bournemouth Airport

Current Time: May 1, 2017 at 3:34:59 am

Latest Report: May 1, 2017 at 2:50 am


Visibility: N/A

Pressure: 29.45 "Hg

Humidity: 100%

Dew Point: 46 °F

Location of PooleLocation

Past Weather in Poole — Graph

°F

Poole Temperature Yesterday

Maximum temperature yesterday: 57 °F (at 10:20 am)
Minimum temperature yesterday: 48 °F (at 10:50 pm)
Average temperature yesterday: 53 °F

High & Low Weather Summary for the Past Weeks

 TemperatureHumidityPressure
High63 °F (Apr 22, 3:20 pm)100% (Apr 20, 7:20 am)30.63 "Hg (Apr 20, 7:20 am)
Low27 °F (Apr 27, 5:50 am)31% (Apr 18, 3:20 pm)29.42 "Hg (Apr 30, 5:20 pm)
Average51 °F68%30.17 "Hg
* Reported Apr 16 5:50 am — May 1 2:20 am, Poole, Weather by CustomWeather, © 2017

Note: Actual official high and low records may vary slightly from our data, if they occured in-between our weather recording intervals... More about our weather records

Advertising

Poole Weather History for the Previous 24 Hours

Scroll right to see more
 ConditionsComfort  
Time TempWeatherWind HumidityBarometerVisibility
2:20 am
Mon, May 1
48 °FPassing clouds.5 mph94%29.45 "HgN/A
1:20 am48 °FPassing clouds.5 mph100%29.45 "HgN/A
12:50 am48 °FPassing clouds.2 mph94%29.45 "HgN/A
12:20 am50 °FRain. Fog.7 mph88%29.45 "Hg3 mi
11:50 pm
Sun, Apr 30
50 °FPassing clouds.8 mph88%29.45 "HgN/A
11:20 pm50 °FPassing clouds.6 mph94%29.45 "HgN/A
10:50 pm48 °FPartly cloudy.10 mph100%29.45 "HgN/A
10:20 pm50 °FLight rain. Passing clouds.8 mph94%29.45 "HgN/A
9:50 pm50 °FLight rain. Partly cloudy.8 mph94%29.42 "Hg5 mi
9:20 pm50 °FRain. Fog.8 mph100%29.42 "Hg2 mi
8:50 pm52 °FRain. Fog.8 mph94%29.42 "Hg2 mi
8:20 pm52 °FLight rain. Broken clouds.8 mph94%29.42 "HgN/A
7:50 pm52 °FLight rain. Broken clouds.9 mph94%29.42 "HgN/A
7:20 pm54 °FPartly sunny.9 mph88%29.42 "HgN/A
6:50 pm54 °FPartly sunny.10 mph82%29.42 "HgN/A
6:20 pm54 °FPartly sunny.8 mph82%29.42 "HgN/A
5:50 pm52 °FPartly sunny.9 mph88%29.42 "HgN/A
5:20 pm52 °FPartly sunny.7 mph88%29.42 "HgN/A
4:50 pm52 °FPartly sunny.7 mph88%29.45 "Hg6 mi
4:20 pm52 °FSprinkles. Partly sunny.10 mph88%29.45 "Hg6 mi
3:50 pm52 °FSprinkles. Partly sunny.12 mph88%29.45 "Hg4 mi
3:20 pm52 °FPartly sunny.12 mph88%29.45 "HgN/A
2:50 pm52 °FPartly sunny.9 mph88%29.45 "HgN/A
2:20 pm50 °FPartly sunny.10 mph94%29.45 "HgN/A
1:50 pm50 °FRain showers. Fog.9 mph94%29.45 "Hg2 mi
1:20 pm50 °FRain showers. Fog.15 mph94%29.47 "Hg2 mi
12:50 pm54 °FLight rain. Partly sunny.18 mph77%29.47 "Hg5 mi
12:20 pm55 °FSunny.20 mph67%29.47 "Hg10 mi
11:50 am55 °FSunny.18 mph67%29.47 "Hg10 mi
11:20 am55 °FSunny.16 mph67%29.47 "Hg10 mi
10:50 am55 °FPassing clouds.18 mph63%29.47 "HgN/A
10:20 am57 °FSunny.17 mph59%29.47 "Hg10 mi
9:50 am55 °FSunny.16 mph63%29.50 "Hg10 mi
9:20 am55 °FSunny.18 mph63%29.50 "Hg10 mi
8:50 am55 °FSunny.16 mph63%29.53 "Hg10 mi
8:20 am54 °FSunny.16 mph67%29.53 "Hg10 mi
7:50 am54 °FSunny.15 mph67%29.53 "Hg10 mi
7:20 am54 °FSunny.15 mph63%29.56 "Hg10 mi
6:50 am54 °FSunny.15 mph63%29.56 "Hg10 mi
6:20 am54 °FSunny.14 mph63%29.59 "Hg10 mi
5:50 am52 °FSunny.13 mph62%29.59 "Hg10 mi
Weather by CustomWeather, © 2017

See weather overviewHow to use our weather pages